Location: Unspecified
(49.8670°N, 0.0000°E)
Time: 10:17:33
(UTC+00:00)

S-56A Canister/Altair - Pass Details

Date: 20 June 2019
Orbit: 633 x 2499 km, 38.9° (Epoch: 15 October)

Event Time Altitude Azimuth Distance (km) Brightness Sun altitude
Rises 18:45:41 0° 252° (WSW) 4,146 12.1 11.0°
Reaches altitude 10° 18:49:18 10° 242° (WSW) 2,871 11.1 10.5°
Maximum altitude 18:54:44 28° 187° (S) 1,540 9.0 9.7°
Drops below altitude 10° 18:58:57 10° 128° (SE) 2,192 9.3 9.1°
Sets 19:01:21 0° 116° (ESE) 3,004 9.9 8.7°
